Regional Weather Roundup
Issued by NWS Charleston, SC

Current Version | Previous Version | Text Only | Print | Product List | Glossary Off
Versions: 1 2 3 4 5 6 7 8 9 10 11 12 13 14 15 16 17 18 19 20 21 22 23 24 25 26 27 28 29 30 31 32 33 34 35 36 37 38 39 40 41 42 43 44 45 46 47 48 49 50

000
ASUS42 KCHS 271413
RWRCHS

REGIONAL WEATHER ROUNDUP
NATIONAL WEATHER SERVICE CHARLESTON SC
1000 AM EDT TUE SEP 27 2016

NOTE: "FAIR" INDICATES FEW OR NO CLOUDS BELOW 12,000 FEET WITH NO
SIGNIFICANT WEATHER AND/OR OBSTRUCTIONS TO VISIBILITY.

NOT ALL STATIONS ARE QUALITY CONTROLLED. USE DATA WITH CAUTION...
ESPECIALLY DEWPOINT OBSERVATIONS.

SCZ027-030-031-034>040-042>050-271500-
...SOUTHEAST SOUTH CAROLINA...

CITY           SKY/WX    TMP DP  RH WIND       PRES   REMARKS
N CHARLESTON   PTSUNNY   77  72  84 CALM      29.96R
WATERFRONT PRK   N/A     76  74  93 VRB2      29.93F
MOUNT PLEASANT FAIR      77  73  88 E3        29.96S
JOHNS ISLAND   FAIR      77  75  94 CALM      29.96R
PINOPOLIS        N/A     75  72  88 CALM      29.90R
MONCKS CORNER  FAIR      75  70  83 CALM      29.97S
SUMMERVILLE    FAIR      73  73 100 CALM      29.98S
BEAUFORT MCAS  PTSUNNY   77  72  84 N5        29.97R
BEAUFORT ARPT  FAIR      77  72  83 NE7       29.96R
HILTON HEAD IS MOSUNNY   79  73  83 NE7       29.96S
WALTERBORO     CLOUDY    75  75 100 NE3       29.98S
ALLENDALE      CLOUDY    72  72 100 N3        29.98R FOG

...SOUTHERN MIDLANDS AND PEE DEE...

CITY           SKY/WX    TMP DP  RH WIND       PRES   REMARKS
GEORGETOWN     FAIR      73  70  88 CALM      29.98R
KINGSTREE      CLOUDY    72  70  94 W3        29.98R
ORANGEBURG     PTSUNNY   74  71  91 VRB3      29.99R
BARNWELL       NOT AVBL
AIKEN          CLOUDY    70  70 100 CALM      30.03S FOG
MANNING        CLOUDY    72  68  88 N3        29.98R
COLUMBIA       MOSUNNY   77  70  79 CALM      29.98R
SUMTER         PTSUNNY   74  71  90 VRB3      29.97R FOG
FLORENCE       MOSUNNY   77  70  79 E3        29.98S
MYRTLE BEACH   NOT AVBL
N MYRTLE BEACH CLOUDY    79  72  79 NW3       29.96S

$$

GAZ063-065-086>088-099>101-113>116-118-119-134>141-150-271500-
...SOUTHEAST GEORGIA...

CITY           SKY/WX    TMP DP  RH WIND       PRES   REMARKS
SAVANNAH ARPT  PTSUNNY   78  70  76 NE6       29.96S
HUNTER AAF     PTSUNNY   75  75 100 VRB3      29.94R FOG
FORT STEWART   PTSUNNY   75  73  93 N3        29.95R
STATESBORO     CLOUDY    74  73  97 N3        29.98S
SYLVANIA       NOT AVBL
CLAXTON        FAIR      76  75  99 CALM      29.98R FOG

...CSRA...CENTRAL AND FAR SOUTHEAST GEORGIA...

CITY           SKY/WX    TMP DP  RH WIND       PRES   REMARKS
THOMSON        SUNNY     78  72  83 CALM      30.04R
AUGUSTA-BUSH   FOG       72  71  97 CALM      29.98S VSB 1/4
AUGUSTA-DANIEL SUNNY     77  68  73 E3        29.99S
SWAINSBORO     FAIR      75  70  83 NE3       30.00R
VIDALIA        CLOUDY    73  73 100 CALM      29.99S
EASTMAN        FAIR      74  74 100 CALM      30.02R
HAZLEHURST     CLOUDY    73  73 100 CALM      29.99R
ALMA           MOSUNNY   72  69  90 NW5       29.98R
WAYCROSS       MOSUNNY   77  74  91 CALM      29.97S
JESUP          FAIR      77  73  88 N6        29.97R
BAXLEY         CLOUDY    73  73 100 CALM      29.98R FOG
BRUNSWICK      MOSUNNY   77  73  88 N3        29.97R
SAINT SIMONS   MOSUNNY   79  71  76 N7        29.95R

$$

SCZ027-028-034-036>038-045-046-048>050-GAZ119-141-271500-
...LAKE AND SUPPLEMENTAL COASTAL OBSERVATIONS...

STATION/POSITION TIME  TEMP    WIND        PRES    WAVE   SWELL
                       AIR SEA DIR/SP/G            HT/PER HT/PER/DIR
                 (UTC) (F)     (DEG/KT/KT) (MB)    (FT/S) (FT/S/D)
WINYAH BAY       NOT AVBL
LAKE MURRAY      1320   75     100/  4/  5 1014.6S
ACE BASIN NERRS  1245   74      40/  1     1014.0
FORT PULASKI     1348   76 81   10/  5/  6 1014.6R
SAPELO ISLAND    1300   76     360/  8     1014.0

$$

ANZ835-935-AMZ111-154-330-350-352-354-370-450-454-472-271500-
...C-MAN AND BUOY OBSERVATIONS...

STATION/POSITION TIME  TEMP    WIND        PRES    WAVE   SWELL
                       AIR SEA DIR/SP/G            HT/PER HT/PER/DIR
                 (UTC) (F)     (DEG/KT/KT) (MB)    (FT/S) (FT/S/D)
BUOY 41004       1350   76 82   80/  4/  4 1013.9R   3/ 8   3/100/ 8
BUOY 41008       1350   77 82   20/ 10/ 12 1013.7R   2/ 5   2/120/ 5
FOLLY BEACH CMAN 1300   74      CALM  /  1 1014.4R
CAPERS NEARSHORE 1308   76 81  100/  6/ 10 1014.0R
FRIPP NEARSHORE  1308   78 81   50/ 10/ 12 1013.9S


STATION/POSITION TIME  TEMP    WIND        PRES    WAVE   SWELL
                       AIR SEA DIR/SP/G            HT/PER HT/PER/DIR
                 (UTC) (F)     (DEG/KT/KT) (MB)    (FT/S) (FT/S/D)
5E ST. MARYS GA  1301      82                N/A     3/10
FRYING PAN BUOY  1350   80 82   30/  6/  8 1013.8R   4/ 6   3/130/ 6
BUOY 41025       1350   79 84  180/ 10/ 14 1015.2S   3/ 8   3/ 80/ 8
CAPE LOOKOUT NC  1400   77     140/ 13/ 15 1014.3S
BUOY 41002       1350   79 83  140/ 14/ 19 1013.9F   6/ 6   3/ 40/ 8
BUOY 41010       NOT AVBL
ST AUGUSTINE FL  1400   78 83  340/  8/ 10 1014.9R


$$




USA.gov is the U.S. government's official web portal to all federal, state and local government web resources and services.